Time,TemperatureF,DewpointF,PressureIn,WindDirection,WindDirectionDegrees,WindSpeedMPH,WindSpeedGustMPH,Humidity,HourlyPrecipIn,Conditions,Clouds,dailyrainin,SoftwareType,DateUTC
2013-01-23 00:00:00,46.3,10.2,30.17,North,0,0.0,0.0,23,0.00,,,0.00,WUHU216HW,2013-01-23 08:00:00,
2013-01-23 00:05:00,46.3,10.2,30.17,North,0,0.0,0.0,23,0.00,,,0.00,WUHU216HW,2013-01-23 08:05:00,
2013-01-23 00:30:00,46.4,10.4,30.17,North,0,0.0,0.0,23,0.00,,,0.00,WUHU216HW,2013-01-23 08:30:00,
2013-01-23 00:35:00,46.4,10.4,30.17,North,0,0.0,0.0,23,0.00,,,0.00,WUHU216HW,2013-01-23 08:35:00,
2013-01-23 01:00:00,46.4,10.4,30.18,North,0,0.0,0.0,23,0.00,,,0.00,WUHU216HW,2013-01-23 09:00:00,
2013-01-23 01:05:00,46.4,10.4,30.18,North,0,0.0,0.0,23,0.00,,,0.00,WUHU216HW,2013-01-23 09:05:00,
2013-01-23 01:30:00,45.7,9.7,30.18,North,0,0.0,0.0,23,0.00,,,0.00,WUHU216HW,2013-01-23 09:30:00,
2013-01-23 01:35:00,45.7,9.7,30.18,North,0,0.0,0.0,23,0.00,,,0.00,WUHU216HW,2013-01-23 09:35:00,
2013-01-23 02:00:00,45.2,9.3,30.17,North,0,0.0,0.0,23,0.00,,,0.00,WUHU216HW,2013-01-23 10:00:00,
2013-01-23 02:05:00,45.2,9.3,30.17,North,0,0.0,0.0,23,0.00,,,0.00,WUHU216HW,2013-01-23 10:05:00,
2013-01-23 02:30:00,45.0,10.0,30.17,North,0,0.0,0.0,24,0.00,,,0.00,WUHU216HW,2013-01-23 10:30:00,
2013-01-23 02:35:00,45.0,10.0,30.17,North,0,0.0,0.0,24,0.00,,,0.00,WUHU216HW,2013-01-23 10:35:00,
2013-01-23 03:00:00,45.0,10.9,30.17,North,0,0.0,0.0,25,0.00,,,0.00,WUHU216HW,2013-01-23 11:00:00,
2013-01-23 03:05:00,45.0,10.9,30.17,North,0,0.0,0.0,25,0.00,,,0.00,WUHU216HW,2013-01-23 11:05:00,
2013-01-23 03:30:00,44.6,10.6,30.16,North,0,0.0,0.0,25,0.00,,,0.00,WUHU216HW,2013-01-23 11:30:00,
2013-01-23 03:35:00,44.6,10.6,30.16,North,0,0.0,0.0,25,0.00,,,0.00,WUHU216HW,2013-01-23 11:35:00,
2013-01-23 04:00:00,44.6,10.6,30.16,North,0,0.0,0.0,25,0.00,,,0.00,WUHU216HW,2013-01-23 12:00:00,
2013-01-23 04:05:00,44.6,10.6,30.16,North,0,0.0,0.0,25,0.00,,,0.00,WUHU216HW,2013-01-23 12:05:00,
2013-01-23 04:30:00,45.0,10.9,30.16,North,0,0.0,0.0,25,0.00,,,0.00,WUHU216HW,2013-01-23 12:30:00,
2013-01-23 04:35:00,45.0,10.9,30.16,North,0,0.0,0.0,25,0.00,,,0.00,WUHU216HW,2013-01-23 12:35:00,
2013-01-23 05:00:00,44.6,10.6,30.16,North,0,0.0,0.0,25,0.00,,,0.00,WUHU216HW,2013-01-23 13:00:00,
2013-01-23 05:05:00,44.6,10.6,30.16,North,0,0.0,0.0,25,0.00,,,0.00,WUHU216HW,2013-01-23 13:05:00,
2013-01-23 05:30:00,44.3,12.1,30.16,North,0,0.0,0.0,27,0.00,,,0.00,WUHU216HW,2013-01-23 13:30:00,
2013-01-23 05:35:00,44.3,12.1,30.16,North,0,0.0,0.0,27,0.00,,,0.00,WUHU216HW,2013-01-23 13:35:00,
2013-01-23 06:00:00,44.5,12.2,30.17,North,0,0.0,0.0,27,0.00,,,0.00,WUHU216HW,2013-01-23 14:00:00,
2013-01-23 06:05:00,44.5,12.2,30.17,North,0,0.0,0.0,27,0.00,,,0.00,WUHU216HW,2013-01-23 14:05:00,
2013-01-23 06:30:00,44.5,12.2,30.18,North,0,0.0,0.0,27,0.00,,,0.00,WUHU216HW,2013-01-23 14:30:00,
2013-01-23 06:35:00,44.5,12.2,30.18,North,0,0.0,0.0,27,0.00,,,0.00,WUHU216HW,2013-01-23 14:35:00,
2013-01-23 07:00:00,44.3,13.0,30.18,North,0,0.0,0.0,28,0.00,,,0.00,WUHU216HW,2013-01-23 15:00:00,
2013-01-23 07:05:00,44.3,13.0,30.18,North,0,0.0,0.0,28,0.00,,,0.00,WUHU216HW,2013-01-23 15:05:00,
2013-01-23 07:23:00,44.3,13.0,30.18,North,0,0.0,0.0,28,0.00,,,0.00,WUHU216HW,2013-01-23 15:23:00,
2013-01-23 07:29:00,44.3,13.0,30.18,North,0,0.0,0.0,28,0.00,,,0.00,WUHU216HW,2013-01-23 15:29:00,
2013-01-23 07:34:00,44.3,13.0,30.17,North,0,0.0,0.0,28,0.00,,,0.00,WUHU216HW,2013-01-23 15:34:00,
2013-01-23 07:39:00,44.3,13.0,30.17,North,0,0.0,0.0,28,0.00,,,0.00,WUHU216HW,2013-01-23 15:39:00,
2013-01-23 08:00:00,44.6,14.2,30.18,North,0,0.0,0.0,29,0.00,,,0.00,WUHU216HW,2013-01-23 16:00:00,
2013-01-23 08:05:00,44.6,14.2,30.18,North,0,0.0,0.0,29,0.00,,,0.00,WUHU216HW,2013-01-23 16:05:00,
2013-01-23 08:30:00,45.4,15.8,30.19,North,0,0.0,0.0,30,0.00,,,0.00,WUHU216HW,2013-01-23 16:30:00,
2013-01-23 08:35:00,45.4,15.8,30.19,North,0,0.0,0.0,30,0.00,,,0.00,WUHU216HW,2013-01-23 16:35:00,
2013-01-23 09:00:00,46.8,16.1,30.20,North,0,0.0,0.0,29,0.00,,,0.00,WUHU216HW,2013-01-23 17:00:00,
2013-01-23 09:05:00,46.8,16.1,30.20,North,0,0.0,0.0,29,0.00,,,0.00,WUHU216HW,2013-01-23 17:05:00,
2013-01-23 09:30:00,48.4,15.7,30.21,North,0,0.0,0.0,27,0.00,,,0.00,WUHU216HW,2013-01-23 17:30:00,
2013-01-23 09:35:00,48.4,15.7,30.21,North,0,0.0,0.0,27,0.00,,,0.00,WUHU216HW,2013-01-23 17:35:00,
2013-01-23 10:00:00,50.4,15.5,30.22,North,0,0.0,0.0,25,0.00,,,0.00,WUHU216HW,2013-01-23 18:00:00,
2013-01-23 10:05:00,50.4,15.5,30.22,North,0,0.0,0.0,25,0.00,,,0.00,WUHU216HW,2013-01-23 18:05:00,
2013-01-23 10:30:00,53.1,16.8,30.20,North,0,0.0,0.0,24,0.00,,,0.00,WUHU216HW,2013-01-23 18:30:00,
2013-01-23 10:35:00,53.1,16.8,30.20,North,0,0.0,0.0,24,0.00,,,0.00,WUHU216HW,2013-01-23 18:35:00,
2013-01-23 11:00:00,54.9,18.4,30.20,North,0,0.0,0.0,24,0.00,,,0.00,WUHU216HW,2013-01-23 19:00:00,
2013-01-23 11:05:00,54.9,18.4,30.20,North,0,0.0,0.0,24,0.00,,,0.00,WUHU216HW,2013-01-23 19:05:00,
2013-01-23 11:30:00,56.7,19.0,30.18,North,0,0.0,0.0,23,0.00,,,0.00,WUHU216HW,2013-01-23 19:30:00,
2013-01-23 11:35:00,56.7,19.0,30.18,North,0,0.0,0.0,23,0.00,,,0.00,WUHU216HW,2013-01-23 19:35:00,
2013-01-23 12:00:00,56.7,18.0,30.17,North,0,0.0,0.0,22,0.00,,,0.00,WUHU216HW,2013-01-23 20:00:00,
2013-01-23 12:05:00,56.7,18.0,30.17,North,0,0.0,0.0,22,0.00,,,0.00,WUHU216HW,2013-01-23 20:05:00,
2013-01-23 12:30:00,57.4,17.6,30.15,North,0,0.0,0.0,21,0.00,,,0.00,WUHU216HW,2013-01-23 20:30:00,
2013-01-23 12:35:00,57.4,17.6,30.15,North,0,0.0,0.0,21,0.00,,,0.00,WUHU216HW,2013-01-23 20:35:00,
2013-01-23 13:00:00,58.9,17.8,30.14,North,0,0.0,0.0,20,0.00,,,0.00,WUHU216HW,2013-01-23 21:00:00,
2013-01-23 13:05:00,58.9,17.8,30.14,North,0,0.0,0.0,20,0.00,,,0.00,WUHU216HW,2013-01-23 21:05:00,
2013-01-23 13:30:00,60.7,20.4,30.12,North,0,0.0,0.0,21,0.00,,,0.00,WUHU216HW,2013-01-23 21:30:00,
2013-01-23 13:35:00,60.7,20.4,30.12,North,0,0.0,0.0,21,0.00,,,0.00,WUHU216HW,2013-01-23 21:35:00,
2013-01-23 14:00:00,61.2,18.4,30.12,North,0,0.0,0.0,19,0.00,,,0.00,WUHU216HW,2013-01-23 22:00:00,
2013-01-23 14:05:00,61.2,18.4,30.12,North,0,0.0,0.0,19,0.00,,,0.00,WUHU216HW,2013-01-23 22:05:00,
2013-01-23 14:30:00,61.4,21.0,30.12,North,0,0.0,0.0,21,0.00,,,0.00,WUHU216HW,2013-01-23 22:30:00,
2013-01-23 14:35:00,61.4,21.0,30.12,North,0,0.0,0.0,21,0.00,,,0.00,WUHU216HW,2013-01-23 22:35:00,
2013-01-23 15:00:00,61.6,18.6,30.12,North,0,0.0,0.0,19,0.00,,,0.00,WUHU216HW,2013-01-23 23:00:00,
2013-01-23 15:05:00,61.6,18.6,30.12,North,0,0.0,0.0,19,0.00,,,0.00,WUHU216HW,2013-01-23 23:05:00,
2013-01-23 15:30:00,61.0,19.8,30.11,North,0,0.0,0.0,20,0.00,,,0.00,WUHU216HW,2013-01-23 23:30:00,
2013-01-23 15:35:00,61.0,19.8,30.11,North,0,0.0,0.0,20,0.00,,,0.00,WUHU216HW,2013-01-23 23:35:00,
2013-01-23 16:00:00,59.9,19.8,30.12,North,0,0.0,0.0,21,0.00,,,0.00,WUHU216HW,2013-01-24 00:00:00,
2013-01-23 16:05:00,59.9,19.8,30.12,North,0,0.0,0.0,21,0.00,,,0.00,WUHU216HW,2013-01-24 00:05:00,
2013-01-23 16:30:00,58.7,17.7,30.12,North,0,0.0,0.0,20,0.00,,,0.00,WUHU216HW,2013-01-24 00:30:00,
2013-01-23 16:35:00,58.7,17.7,30.12,North,0,0.0,0.0,20,0.00,,,0.00,WUHU216HW,2013-01-24 00:35:00,
2013-01-23 17:00:00,57.8,17.9,30.12,North,0,0.0,0.0,21,0.00,,,0.00,WUHU216HW,2013-01-24 01:00:00,
2013-01-23 17:05:00,57.8,17.9,30.12,North,0,0.0,0.0,21,0.00,,,0.00,WUHU216HW,2013-01-24 01:05:00,
2013-01-23 17:30:00,56.9,17.2,30.12,North,0,0.0,0.0,21,0.00,,,0.00,WUHU216HW,2013-01-24 01:30:00,
2013-01-23 17:35:00,56.9,17.2,30.12,North,0,0.0,0.0,21,0.00,,,0.00,WUHU216HW,2013-01-24 01:35:00,
2013-01-23 18:00:00,56.2,17.6,30.12,North,0,0.0,0.0,22,0.00,,,0.00,WUHU216HW,2013-01-24 02:00:00,
2013-01-23 18:05:00,56.2,17.6,30.12,North,0,0.0,0.0,22,0.00,,,0.00,WUHU216HW,2013-01-24 02:05:00,
2013-01-23 18:30:00,55.6,17.1,30.12,North,0,0.0,0.0,22,0.00,,,0.00,WUHU216HW,2013-01-24 02:30:00,
2013-01-23 18:35:00,55.6,17.1,30.12,North,0,0.0,0.0,22,0.00,,,0.00,WUHU216HW,2013-01-24 02:35:00,
2013-01-23 19:00:00,55.3,16.8,30.12,North,0,0.0,0.0,22,0.00,,,0.00,WUHU216HW,2013-01-24 03:00:00,
2013-01-23 19:05:00,55.3,16.8,30.12,North,0,0.0,0.0,22,0.00,,,0.00,WUHU216HW,2013-01-24 03:05:00,
2013-01-23 19:30:00,55.1,16.7,30.11,North,0,0.0,0.0,22,0.00,,,0.00,WUHU216HW,2013-01-24 03:30:00,
2013-01-23 19:35:00,55.1,16.7,30.11,North,0,0.0,0.0,22,0.00,,,0.00,WUHU216HW,2013-01-24 03:35:00,
2013-01-23 20:00:00,54.5,17.1,30.12,North,0,0.0,0.0,23,0.00,,,0.00,WUHU216HW,2013-01-24 04:00:00,
2013-01-23 20:05:00,54.5,17.1,30.12,North,0,0.0,0.0,23,0.00,,,0.00,WUHU216HW,2013-01-24 04:05:00,
2013-01-23 20:30:00,54.0,16.7,30.12,North,0,0.0,0.0,23,0.00,,,0.00,WUHU216HW,2013-01-24 04:30:00,
2013-01-23 20:35:00,54.0,16.7,30.12,North,0,0.0,0.0,23,0.00,,,0.00,WUHU216HW,2013-01-24 04:35:00,
2013-01-23 21:01:00,53.3,16.0,30.12,North,0,0.0,0.0,23,0.00,,,0.00,WUHU216HW,2013-01-24 05:01:00,
2013-01-23 21:02:00,53.3,16.0,30.12,North,0,0.0,0.0,23,0.00,,,0.00,WUHU216HW,2013-01-24 05:02:00,
2013-01-23 21:03:00,53.3,16.0,30.12,North,0,0.0,0.0,23,0.00,,,0.00,WUHU216HW,2013-01-24 05:03:00,
2013-01-23 21:08:00,53.3,16.0,30.12,North,0,0.0,0.0,23,0.00,,,0.00,WUHU216HW,2013-01-24 05:08:00,
2013-01-23 21:30:00,52.6,16.4,30.12,North,0,0.0,0.0,24,0.00,,,0.00,WUHU216HW,2013-01-24 05:30:00,
2013-01-23 21:35:00,52.6,16.4,30.12,North,0,0.0,0.0,24,0.00,,,0.00,WUHU216HW,2013-01-24 05:35:00,
2013-01-23 22:00:00,52.9,16.8,30.12,North,0,0.0,0.0,24,0.00,,,0.00,WUHU216HW,2013-01-24 06:00:00,
2013-01-23 22:05:00,52.9,16.8,30.12,North,0,0.0,0.0,24,0.00,,,0.00,WUHU216HW,2013-01-24 06:05:00,
2013-01-23 22:30:00,53.3,18.0,30.12,North,0,0.0,0.0,25,0.00,,,0.00,WUHU216HW,2013-01-24 06:30:00,
2013-01-23 22:35:00,53.3,18.0,30.12,North,0,0.0,0.0,25,0.00,,,0.00,WUHU216HW,2013-01-24 06:35:00,
2013-01-23 23:00:00,53.3,18.0,30.12,North,0,0.0,0.0,25,0.00,,,0.00,WUHU216HW,2013-01-24 07:00:00,
2013-01-23 23:05:00,53.3,18.0,30.12,North,0,0.0,0.0,25,0.00,,,0.00,WUHU216HW,2013-01-24 07:05:00,
2013-01-23 23:30:00,53.8,18.5,30.11,North,0,0.0,0.0,25,0.00,,,0.00,WUHU216HW,2013-01-24 07:30:00,
2013-01-23 23:35:00,53.8,18.5,30.11,North,0,0.0,0.0,25,0.00,,,0.00,WUHU216HW,2013-01-24 07:35:00,